When you browse on this site, cookies collect data to enhance your experience and personalize the content and advertising you see.
Visit our Privacy Policy to learn more. By continuing to use the site, you agree to this use of cookies and data.
  • In Hungary
  • List of Countries
  • For 7 days
  • Water Temperature
  • Satellite Maps
  • Weather Map
  • News
  • Weather Widgets
  • user-avatar
    Login

    Hourly Weather Misilmeri

    Today, 26 June, Wednesday

    Time Temperature Precipitation Wind Pressure Humidity
    00:00 +25°C° 0 mm 1 mps 751 mmHg 63%
    01:00 +25°C° 0 mm 1 mps 751 mmHg 65%
    02:00 +24°C° 0 mm 1 mps 750 mmHg 65%
    03:00 +24°C° 0 mm 1 mps 750 mmHg 66%
    04:00 +24°C° 0 mm 1 mps 750 mmHg 67%
    05:00 +26°C° 0 mm 1 mps 750 mmHg 63%
    06:00 +27°C° 0 mm 1 mps 751 mmHg 58%
    07:00 +29°C° 0 mm 1 mps 751 mmHg 52%
    08:00 +30°C° 0 mm 1 mps 751 mmHg 49%
    09:00 +31°C° 0 mm 2 mps 751 mmHg 46%
    10:00 +32°C° 0 mm 2 mps 751 mmHg 44%
    11:00 +32°C° 0 mm 2 mps 751 mmHg 43%
    12:00 +34°C° 0 mm 3 mps 752 mmHg 43%
    13:00 +34°C° 0 mm 3 mps 752 mmHg 42%
    14:00 +34°C° 0 mm 3 mps 751 mmHg 45%
    15:00 +33°C° 0 mm 3 mps 751 mmHg 48%
    16:00 +31°C° 0 mm 2 mps 750 mmHg 51%
    17:00 +30°C° 0 mm 2 mps 751 mmHg 53%
    18:00 +30°C° 0 mm 2 mps 751 mmHg 56%
    19:00 +29°C° 0 mm 1 mps 751 mmHg 58%
    20:00 +28°C° 0 mm 1 mps 751 mmHg 62%
    21:00 +27°C° 0 mm 1 mps 751 mmHg 65%
    22:00 +26°C° 0 mm 1 mps 751 mmHg 68%
    23:00 +26°C° 0 mm 1 mps 751 mmHg 66%

    Tomorrow, 27 June, Thursday

    Time Temperature Precipitation Wind Pressure Humidity
    00:00 +25°C° 0 mm 1 mps 751 mmHg 64%
    01:00 +25°C° 0 mm 1 mps 751 mmHg 62%
    02:00 +25°C° 0 mm 1 mps 750 mmHg 63%
    03:00 +25°C° 0 mm 1 mps 750 mmHg 63%
    04:00 +25°C° 0 mm 1 mps 750 mmHg 63%
    05:00 +26°C° 0.2 mm 1 mps 750 mmHg 59%
    06:00 +28°C° 0.2 mm 1 mps 750 mmHg 56%
    07:00 +29°C° 0.2 mm 1 mps 750 mmHg 52%
    08:00 +30°C° 0 mm 1 mps 750 mmHg 49%
    09:00 +32°C° 0 mm 2 mps 750 mmHg 45%
    10:00 +34°C° 0 mm 2 mps 750 mmHg 42%
    11:00 +34°C° 0 mm 3 mps 750 mmHg 43%
    12:00 +34°C° 0 mm 3 mps 750 mmHg 43%
    13:00 +34°C° 0 mm 3 mps 750 mmHg 43%
    14:00 +34°C° 0 mm 3 mps 750 mmHg 45%
    15:00 +33°C° 0 mm 3 mps 749 mmHg 47%
    16:00 +33°C° 0 mm 3 mps 749 mmHg 49%
    17:00 +31°C° 0 mm 2 mps 749 mmHg 52%
    18:00 +30°C° 0 mm 2 mps 749 mmHg 54%
    19:00 +29°C° 0 mm 1 mps 748 mmHg 57%
    20:00 +28°C° 0 mm 1 mps 748 mmHg 62%
    21:00 +27°C° 0 mm 1 mps 749 mmHg 66%
    22:00 +26°C° 0 mm 1 mps 749 mmHg 71%
    23:00 +26°C° 0 mm 1 mps 748 mmHg 72%

    Day after tomorrow, 28 June, Friday

    Time Temperature Precipitation Wind Pressure Humidity
    00:00 +26°C° 0 mm 1 mps 748 mmHg 73%
    01:00 +25°C° 0 mm 1 mps 748 mmHg 73%
    02:00 +25°C° 0 mm 1 mps 748 mmHg 71%
    03:00 +25°C° 0 mm 1 mps 747 mmHg 68%
    04:00 +25°C° 0 mm 1 mps 747 mmHg 66%
    05:00 +27°C° 0 mm 1 mps 747 mmHg 62%
    06:00 +28°C° 0 mm 1 mps 747 mmHg 58%
    07:00 +29°C° 0 mm 1 mps 747 mmHg 54%
    08:00 +31°C° 0 mm 2 mps 747 mmHg 49%
    09:00 +32°C° 0 mm 2 mps 747 mmHg 43%
    10:00 +35°C° 0 mm 3 mps 748 mmHg 37%
    11:00 +35°C° 0 mm 3 mps 747 mmHg 36%
    12:00 +35°C° 0 mm 3 mps 747 mmHg 35%
    13:00 +36°C° 0 mm 4 mps 747 mmHg 34%
    14:00 +35°C° 0 mm 4 mps 747 mmHg 37%
    15:00 +34°C° 0 mm 4 mps 747 mmHg 40%
    16:00 +34°C° 0 mm 4 mps 747 mmHg 43%
    17:00 +31°C° 0 mm 3 mps 746 mmHg 49%
    18:00 +30°C° 0 mm 2 mps 746 mmHg 54%
    19:00 +29°C° 0 mm 2 mps 746 mmHg 59%
    20:00 +28°C° 0 mm 1 mps 746 mmHg 61%
    21:00 +27°C° 0 mm 1 mps 747 mmHg 63%
    22:00 +26°C° 0 mm 1 mps 747 mmHg 65%
    23:00 +26°C° 0.2 mm 1 mps 747 mmHg 64%

    29 June, Saturday

    Time Temperature Precipitation Wind Pressure Humidity
    00:00 +26°C° 0.2 mm 1 mps 747 mmHg 63%
    01:00 +26°C° 0.2 mm 1 mps 746 mmHg 62%
    02:00 +25°C° 0 mm 1 mps 746 mmHg 60%
    03:00 +25°C° 0 mm 1 mps 746 mmHg 58%
    04:00 +25°C° 0 mm 1 mps 746 mmHg 56%
    05:00 +27°C° 0 mm 1 mps 746 mmHg 51%
    06:00 +29°C° 0 mm 1 mps 746 mmHg 47%
    07:00 +28°C° 0 mm 0 mps 746 mmHg 42%
    08:00 +32°C° 0 mm 1 mps 747 mmHg 38%
    09:00 +33°C° 0 mm 1 mps 747 mmHg 34%
    10:00 +36°C° 0 mm 2 mps 747 mmHg 31%
    11:00 +36°C° 0 mm 2 mps 747 mmHg 32%
    12:00 +36°C° 0 mm 3 mps 747 mmHg 32%
    13:00 +37°C° 0 mm 3 mps 747 mmHg 33%
    14:00 +36°C° 0 mm 3 mps 747 mmHg 35%
    15:00 +35°C° 0 mm 3 mps 747 mmHg 38%
    16:00 +34°C° 0 mm 3 mps 747 mmHg 40%
    17:00 +32°C° 0 mm 2 mps 747 mmHg 45%
    18:00 +31°C° 0 mm 2 mps 747 mmHg 49%
    19:00 +30°C° 0 mm 2 mps 747 mmHg 53%
    20:00 +29°C° 0 mm 1 mps 747 mmHg 56%
    21:00 +28°C° 0 mm 1 mps 747 mmHg 59%
    22:00 +27°C° 0 mm 1 mps 748 mmHg 61%
    23:00 +26°C° 0 mm 1 mps 748 mmHg 62%

    30 June, Sunday

    Time Temperature Precipitation Wind Pressure Humidity
    00:00 +26°C° 0 mm 1 mps 748 mmHg 64%
    01:00 +25°C° 0 mm 1 mps 748 mmHg 65%
    02:00 +25°C° 0 mm 1 mps 748 mmHg 62%
    03:00 +25°C° 0 mm 1 mps 748 mmHg 58%
    04:00 +25°C° 0 mm 1 mps 748 mmHg 55%
    05:00 +26°C° 0 mm 1 mps 748 mmHg 51%
    06:00 +28°C° 0 mm 1 mps 748 mmHg 46%
    07:00 +27°C° 0 mm 0 mps 749 mmHg 41%
    08:00 +30°C° 0 mm 1 mps 749 mmHg 38%
    09:00 +32°C° 0 mm 2 mps 749 mmHg 35%
    10:00 +34°C° 0 mm 2 mps 750 mmHg 31%
    11:00 +34°C° 0 mm 3 mps 750 mmHg 31%
    12:00 +34°C° 0 mm 3 mps 750 mmHg 30%
    13:00 +35°C° 0 mm 4 mps 750 mmHg 30%
    14:00 +34°C° 0 mm 3 mps 750 mmHg 33%
    15:00 +33°C° 0 mm 3 mps 750 mmHg 35%
    16:00 +33°C° 0 mm 3 mps 750 mmHg 38%
    17:00 +30°C° 0 mm 3 mps 750 mmHg 45%
    18:00 +29°C° 0 mm 2 mps 750 mmHg 51%
    19:00 +28°C° 0 mm 2 mps 750 mmHg 58%
    20:00 +27°C° 0 mm 1 mps 750 mmHg 62%
    21:00 +25°C° 0 mm 1 mps 750 mmHg 67%
    22:00 +24°C° 0 mm 1 mps 751 mmHg 71%
    23:00 +24°C° 0 mm 1 mps 751 mmHg 70%

    1 July, Monday

    Time Temperature Precipitation Wind Pressure Humidity
    00:00 +24°C° 0 mm 1 mps 750 mmHg 68%
    01:00 +23°C° 0 mm 1 mps 750 mmHg 67%
    02:00 +23°C° 0 mm 1 mps 750 mmHg 66%
    03:00 +23°C° 0 mm 1 mps 750 mmHg 65%
    04:00 +23°C° 0 mm 1 mps 750 mmHg 64%
    05:00 +24°C° 0 mm 1 mps 750 mmHg 58%
    06:00 +26°C° 0 mm 1 mps 750 mmHg 51%
    07:00 +26°C° 0 mm 0 mps 751 mmHg 45%
    08:00 +29°C° 0 mm 1 mps 751 mmHg 42%
    09:00 +31°C° 0 mm 1 mps 751 mmHg 38%
    10:00 +32°C° 0 mm 2 mps 751 mmHg 34%
    11:00 +32°C° 0 mm 2 mps 751 mmHg 36%
    12:00 +32°C° 0 mm 2 mps 751 mmHg 38%
    13:00 +33°C° 0 mm 3 mps 751 mmHg 40%
    14:00 +33°C° 0 mm 3 mps 751 mmHg 41%
    15:00 +32°C° 0 mm 2 mps 750 mmHg 43%
    16:00 +31°C° 0 mm 2 mps 750 mmHg 45%
    17:00 +30°C° 0 mm 2 mps 750 mmHg 50%
    18:00 +29°C° 0 mm 1 mps 750 mmHg 55%
    19:00 +28°C° 0 mm 1 mps 750 mmHg 60%
    20:00 +27°C° 0 mm 1 mps 750 mmHg 62%
    21:00 +26°C° 0 mm 1 mps 750 mmHg 64%
    22:00 +25°C° 0 mm 1 mps 750 mmHg 66%
    23:00 +25°C° 0 mm 1 mps 750 mmHg 64%
    Show more